| time (UTC) | temp F | wind direction | speed MPH | gust MPH | rain 1hr in | rain 24hr in | rain mn in | humidity % | barometer mb |
| 20260502170504 | 55 | 119 | 1.0 | 2.0 | 0.01 | 0.23 | 0.23 | 93 | 1011.9 |
| 20260502162504 | 55 | 105 | 1.0 | 3.0 | 0.02 | 0.22 | 0.22 | 92 | 1012.2 |
| 20260502162005 | 55 | 105 | 2.0 | 3.0 | 0.04 | 0.22 | 0.22 | 92 | 1012.2 |
| 20260502161504 | 55 | 117 | 1.0 | 3.0 | 0.06 | 0.22 | 0.22 | 92 | 1012.3 |
| 20260502161004 | 55 | 135 | 1.0 | 3.0 | 0.06 | 0.22 | 0.22 | 92 | 1012.4 |
| 20260502160505 | 55 | 218 | 0.0 | 1.0 | 0.06 | 0.22 | 0.22 | 92 | 1012.4 |
| 20260502152005 | 56 | 103 | 1.0 | 3.0 | 0.11 | 0.18 | 0.18 | 90 | 1012.8 |
| 20260502151504 | 56 | 110 | 1.0 | 3.0 | 0.10 | 0.16 | 0.16 | 90 | 1013.0 |
| 20260502122504 | 64 | 134 | 3.0 | 6.0 | 0.00 | 0.00 | 0.00 | 66 | 1014.8 |
| 20260502122004 | 64 | 93 | 3.0 | 6.0 | 0.00 | 0.00 | 0.00 | 65 | 1014.9 |
| 20260502121505 | 64 | 108 | 2.0 | 5.0 | 0.00 | 0.00 | 0.00 | 66 | 1014.9 |
| 20260502120504 | 64 | 154 | 2.0 | 7.0 | 0.00 | 0.00 | 0.00 | 67 | 1015.1 |
| 20260502114504 | 64 | 151 | 4.0 | 8.0 | 0.00 | 0.00 | 0.00 | 66 | 1015.4 |
| 20260502113505 | 64 | 173 | 4.0 | 7.0 | 0.00 | 0.00 | 0.00 | 68 | 1015.6 |
| 20260502113005 | 63 | 182 | 1.0 | 6.0 | 0.00 | 0.00 | 0.00 | 68 | 1015.6 |
| 20260502112505 | 63 | 110 | 2.0 | 5.0 | 0.00 | 0.00 | 0.00 | 69 | 1015.7 |
| 20260502112004 | 63 | 114 | 3.0 | 5.0 | 0.00 | 0.00 | 0.00 | 69 | 1015.7 |
| 20260502110505 | 63 | 114 | 2.0 | 7.0 | 0.00 | 0.00 | 0.00 | 68 | 1015.9 |
| 20260502105505 | 64 | 45 | 2.0 | 7.0 | 0.00 | 0.00 | 0.00 | 68 | 1016.0 |
| 20260502102504 | 63 | 117 | 3.0 | 7.0 | 0.00 | 0.01 | 0.00 | 69 | 1016.3 |
| 20260502101504 | 64 | 157 | 1.0 | 5.0 | 0.00 | 0.01 | 0.00 | 68 | 1016.5 |
| 20260502091005 | 61 | 154 | 3.0 | 6.0 | 0.00 | 0.01 | 0.00 | 70 | 1017.1 |
| 20260502071504 | 52 | 181 | 2.0 | 3.0 | 0.00 | 0.01 | 0.00 | 94 | 1018.0 |
| 20260502071005 | 51 | 165 | 1.0 | 3.0 | 0.00 | 0.01 | 0.00 | 95 | 1018.0 |
| 20260502070504 | 50 | 205 | 1.0 | 2.0 | 0.00 | 0.01 | 0.00 | 96 | 1018.0 |
| 20260502070005 | 49 | 205 | 1.0 | 2.0 | 0.00 | 0.01 | 0.00 | 95 | 1018.0 |
| 20260502065506 | 49 | 205 | 0.0 | 1.0 | 0.00 | 0.01 | 0.00 | 95 | 1017.9 |
| 20260502065004 | 48 | 207 | 0.0 | 1.0 | 0.00 | 0.01 | 0.00 | 95 | 1018.0 |
| 20260502063504 | 48 | 219 | 0.0 | 1.0 | 0.00 | 0.01 | 0.00 | 95 | 1018.0 |
| 20260502062504 | 47 | 219 | 0.0 | 1.0 | 0.00 | 0.01 | 0.00 | 95 | 1018.1 |
| 20260502062004 | 47 | 219 | 0.0 | 2.0 | 0.00 | 0.01 | 0.00 | 95 | 1018.1 |
| 20260502060504 | 47 | 225 | 0.0 | 1.0 | 0.00 | 0.01 | 0.00 | 95 | 1018.0 |
| 20260502054504 | 47 | 230 | 0.0 | 1.0 | 0.00 | 0.01 | 0.00 | 95 | 1018.2 |
| 20260502053005 | 46 | 230 | 0.0 | 1.0 | 0.00 | 0.01 | 0.00 | 95 | 1018.3 |
| 20260502052004 | 46 | 230 | 0.0 | 0.0 | 0.00 | 0.01 | 0.00 | 95 | 1018.3 |
| 20260502051504 | 46 | 230 | 0.0 | 0.0 | 0.00 | 0.01 | 0.00 | 95 | 1018.3 |
| 20260502051005 | 46 | 230 | 0.0 | 0.0 | 0.00 | 0.01 | 0.00 | 94 | 1018.2 |
| 20260502044504 | 46 | 180 | 0.0 | 2.0 | 0.00 | 0.01 | 0.00 | 94 | 1018.2 |
| 20260502044004 | 46 | 180 | 1.0 | 1.0 | 0.00 | 0.01 | 0.00 | 94 | 1018.2 |
| 20260502043504 | 46 | 180 | 0.0 | 1.0 | 0.00 | 0.01 | 0.00 | 94 | 1018.1 |
| 20260502043005 | 46 | 180 | 0.0 | 1.0 | 0.00 | 0.01 | 0.00 | 94 | 1018.2 |
| 20260502042004 | 46 | 180 | 0.0 | 0.0 | 0.00 | 0.01 | 0.00 | 94 | 1018.2 |
| 20260502034505 | 47 | 180 | 0.0 | 0.0 | 0.00 | 0.01 | 0.00 | 94 | 1018.3 |
| 20260502033004 | 47 | 180 | 0.0 | 3.0 | 0.00 | 0.01 | 0.00 | 94 | 1018.6 |
| 20260502031504 | 46 | 218 | 0.0 | 1.0 | 0.00 | 0.01 | 0.00 | 94 | 1018.7 |
| 20260502030504 | 46 | 218 | 0.0 | 1.0 | 0.00 | 0.01 | 0.00 | 94 | 1018.7 |
| 20260502025004 | 46 | 218 | 0.0 | 0.0 | 0.00 | 0.01 | 0.00 | 93 | 1018.8 |
| 20260502024504 | 46 | 218 | 0.0 | 0.0 | 0.00 | 0.01 | 0.00 | 93 | 1018.8 |
| 20260502024004 | 46 | 218 | 0.0 | 0.0 | 0.00 | 0.01 | 0.00 | 93 | 1018.9 |
| 20260502021005 | 47 | 218 | 0.0 | 3.0 | 0.00 | 0.01 | 0.00 | 93 | 1019.2 |
| 20260502020505 | 47 | 218 | 0.0 | 3.0 | 0.00 | 0.01 | 0.00 | 93 | 1019.3 |
| 20260502015504 | 47 | 218 | 0.0 | 1.0 | 0.00 | 0.01 | 0.00 | 93 | 1019.3 |
| 20260502015005 | 48 | 218 | 0.0 | 2.0 | 0.00 | 0.01 | 0.00 | 92 | 1019.3 |
| 20260502014504 | 48 | 218 | 0.0 | 2.0 | 0.00 | 0.01 | 0.00 | 92 | 1019.3 |
| 20260502014004 | 48 | 218 | 1.0 | 2.0 | 0.00 | 0.01 | 0.00 | 92 | 1019.3 |
| 20260502011004 | 49 | 218 | 0.0 | 0.0 | 0.00 | 0.01 | 0.00 | 92 | 1019.5 |
| 20260502010004 | 49 | 218 | 0.0 | 0.0 | 0.00 | 0.01 | 0.00 | 92 | 1019.6 |
| 20260502004504 | 49 | 218 | 0.0 | 0.0 | 0.00 | 0.01 | 0.00 | 92 | 1019.6 |
| 20260502003504 | 49 | 218 | 0.0 | 0.0 | 0.00 | 0.01 | 0.00 | 92 | 1019.7 |
| 20260502003005 | 49 | 218 | 0.0 | 0.0 | 0.00 | 0.01 | 0.00 | 92 | 1019.7 |
| 20260502002004 | 49 | 218 | 0.0 | 1.0 | 0.00 | 0.01 | 0.00 | 92 | 1019.8 |
| 20260502001004 | 49 | 218 | 0.0 | 2.0 | 0.00 | 0.01 | 0.00 | 92 | 1019.8 |
| 20260502000004 | 49 | 218 | 0.0 | 0.0 | 0.00 | 0.01 | 0.00 | 91 | 1019.8 |
| 20260501235005 | 50 | 218 | 0.0 | 0.0 | 0.00 | 0.01 | 0.00 | 90 | 1019.8 |
| 20260501234504 | 50 | 218 | 0.0 | 1.0 | 0.00 | 0.01 | 0.00 | 90 | 1019.9 |
| 20260501232505 | 50 | 218 | 0.0 | 0.0 | 0.00 | 0.01 | 0.00 | 90 | 1019.9 |
| 20260501232004 | 50 | 218 | 0.0 | 0.0 | 0.00 | 0.01 | 0.00 | 90 | 1020.0 |
| 20260501231504 | 51 | 218 | 0.0 | 0.0 | 0.00 | 0.01 | 0.00 | 90 | 1020.0 |
| 20260501230004 | 51 | 218 | 0.0 | 1.0 | 0.00 | 0.01 | 0.00 | 90 | 1020.1 |
| 20260501224505 | 51 | 218 | 0.0 | 0.0 | 0.00 | 0.01 | 0.01 | 89 | 1020.2 |
| 20260501223504 | 52 | 218 | 0.0 | 0.0 | 0.00 | 0.01 | 0.01 | 88 | 1020.3 |
| 20260501220505 | 53 | 218 | 0.0 | 1.0 | 0.00 | 0.01 | 0.01 | 88 | 1020.3 |
| 20260501211005 | 55 | 218 | 1.0 | 2.0 | 0.00 | 0.01 | 0.01 | 86 | 1020.2 |
| 20260501210505 | 55 | 218 | 0.0 | 2.0 | 0.00 | 0.01 | 0.01 | 86 | 1020.2 |
| 20260501205005 | 56 | 218 | 1.0 | 2.0 | 0.00 | 0.01 | 0.01 | 86 | 1020.1 |
| 20260501204504 | 56 | 218 | 0.0 | 3.0 | 0.00 | 0.01 | 0.01 | 85 | 1020.1 |
| 20260501203005 | 56 | 218 | 1.0 | 2.0 | 0.00 | 0.01 | 0.01 | 85 | 1020.1 |
| 20260501202005 | 56 | 218 | 1.0 | 3.0 | 0.00 | 0.01 | 0.01 | 84 | 1020.2 |
| 20260501201504 | 57 | 207 | 2.0 | 3.0 | 0.00 | 0.01 | 0.01 | 84 | 1020.1 |
| 20260501200005 | 57 | 216 | 1.0 | 3.0 | 0.00 | 0.01 | 0.01 | 83 | 1020.0 |
| 20260501195504 | 57 | 240 | 1.0 | 6.0 | 0.00 | 0.01 | 0.01 | 83 | 1020.1 |
| 20260501195005 | 57 | 231 | 3.0 | 6.0 | 0.00 | 0.01 | 0.01 | 83 | 1020.1 |
| 20260501193504 | 58 | 225 | 2.0 | 5.0 | 0.00 | 0.01 | 0.01 | 82 | 1019.9 |
| 20260501193005 | 58 | 235 | 2.0 | 5.0 | 0.00 | 0.01 | 0.01 | 81 | 1020.0 |
| 20260501191004 | 58 | 220 | 2.0 | 6.0 | 0.00 | 0.01 | 0.01 | 80 | 1019.8 |
| 20260501185504 | 58 | 231 | 4.0 | 8.0 | 0.00 | 0.01 | 0.01 | 80 | 1019.7 |
| 20260501182504 | 60 | 215 | 2.0 | 7.0 | 0.00 | 0.01 | 0.01 | 77 | 1019.6 |
| 20260501180504 | 62 | 206 | 3.0 | 6.0 | 0.00 | 0.01 | 0.01 | 77 | 1019.5 |
| 20260501175004 | 62 | 215 | 5.0 | 7.0 | 0.00 | 0.01 | 0.01 | 77 | 1019.4 |
| 20260501174004 | 63 | 205 | 4.0 | 7.0 | 0.00 | 0.01 | 0.01 | 76 | 1019.4 |
| 20260501173504 | 63 | 206 | 2.0 | 6.0 | 0.00 | 0.01 | 0.01 | 75 | 1019.4 |
| 20260501173005 | 63 | 228 | 2.0 | 5.0 | 0.00 | 0.01 | 0.01 | 75 | 1019.4 |
| 20260501172504 | 63 | 199 | 3.0 | 5.0 | 0.00 | 0.01 | 0.01 | 75 | 1019.4 |